Location: Altleiningen
(49.5078°N, 8.0741°E)
Time: 03:53:13
(UTC+00:00)

Cosmos 1666 - Pass Details

Date: 03 March 2021
Orbit: 497 x 518 km, 82.5° (Epoch: 11 April)

Event Time Altitude Azimuth Distance (km) Brightness Sun altitude
Rises 18:29:22 0° 166° (SSE) 2,575 6.0 -13.0°
Reaches altitude 10° 18:31:36 10° 157° (SSE) 1,698 5.0 -13.4°
Maximum altitude 18:34:57 33° 92° (E) 859 3.2 -13.9°
Drops below altitude 10° 18:38:21 10° 27° (NNE) 1,717 5.1 -14.5°
Sets 18:40:36 0° 18° (NNE) 2,609 6.2 -14.8°
